ATLAS 5 CENTAUR DEB, 43986

Orbit data source: Space-Track

ATLAS 5 CENTAUR DEB, 43986 is space debris in HEO originally from a launch on Wed, 17 Sep 2014 UTC launched from the Air Force Eastern Test Range (AFETR). Debris objects in space refer to the collection of defunct objects orbiting the Earth. Examples of debris include non-operational satellites, rocket bodies, and fragments generated from explosions, collisions, or faulty payload assembly.

Loading next visibility...
Identifier
43986, 2014-055AR
Orbit
HEO
Country
Flag of USUS
Related business
Flag of USUnited Launch Alliance/Lockheed Martin (US)
Manufacturer
Unknown
Mission
Spacecraft
Bus & Motor
Unknown
Mass
Unknown
Launch date (UTC)
2014-09-17 (12 years ago)
Launch vehicle
Unknown
Launch site
Air Force Eastern Test Range (AFETR)
Object type
Payload
Rocket body
Debris
Shape & HBR
Unknown shape, 1.1 m
Radar Cross Section
Medium (>0.1 m² and <1 m²)

Expand to show TLE details & history
Last TLE update: 6 days ago

TLE from 6 days ago
0 ATLAS 5 CENTAUR DEB
1 43986U 14055AR  26167.13956300 -.00000063  00000-0  00000+0 0  9993
2 43986  19.9745 149.7831 4776146 155.1872 238.5174  1.84559833 52096
Epoch: 2026-06-16T03:20Z
TLE epoch observation values (Epoch: 2026-06-16T03:20:58.243Z)
Latitude
-0.00002°
Longitude
-164.88789°
Altitude
31,849.336 km
Speed
2.58 km/s
True Right ascension
09h 59m 04s
True Declination
0° 00' 00"
Sunlit
Object was in daylight at epoch
Visualization orbit readout
Latitude
Unknown
Longitude
Unknown
Altitude
Unknown
Speed
Unknown
Apparent Right ascension
Unknown
Apparent Declination
Unknown
Sunlit
N/A
Visualization observer readout
Local Sidereal Time
02:13:23
Azimuth
Unknown
Elevation
Unknown
Doppler factor
Unknown
Orbital elements
Apogee altitude
35,107.842 km
Perigee altitude
8,288.522 km
Semi-major axis
28,076.319 km
Eccentricity
0.47761
Inclination
19.9745°
RAAN
149.7831°
Arg. of periapsis
155.1872°
True anomaly
204.86022°
Mean anomaly
238.5174°
Eccentric anomaly
220.67983°
Mean motion
0.46135 °/min
Orbital period
780.31 mins
BSTAR
0
Loading maneuver chart data...
Computing Atmospheric mass density...

Documentation

Showing up to 5 results
|